sat.trackr.live / text

‹ back to catalog

STARLINK-3112

NORAD 49421 · 2021-104P

PAYLOAD ACTIVE UNKNOWN

§ Identity

Operator
Country
US
Launch date
2021-11-13
Launch site
AFETR
Launch vehicle
Mass (kg)
RCS (m²)

Purposes: comms

External: N2YO · Heavens-Above · Gunter

§ Orbital elements

Epoch: 2026-05-24T17:04:20.111232Z

Period
95.44 min
Inclination
53.2157°
Eccentricity
0.0000868
Mean motion
15.08835640 rev/d
Perigee alt
539.2 km
Apogee alt
540.4 km
Semi-major
6,917.9 km
B*
3.3514e-5
RAAN
247.6542°
Arg perigee
83.6063°
Mean anomaly
276.5028°
Rev number
25,010

§ Raw data

STARLINK-31121 49421U 21104P   26144.71134388  .00000246  00000+0  33514-4 0  99912 49421  53.2157 247.6542 0000868  83.6063 276.5028 15.08835640250101

JSON: /api/v1/satellites/49421 · /tle

For live sub-satellite position, see the globe view (requires WebGL).

§ Visibility from observer

Set your observer location to see the next 7 days of passes ≥ 10°. The values pass through the URL so the page stays shareable.

No JS? Fill the form by hand. The geolocation button needs JavaScript.